TimePST,TemperatureF,Dew PointF,Humidity,Sea Level PressureIn,VisibilityMPH,Wind Direction,Wind SpeedMPH,Gust SpeedMPH,PrecipitationIn,Events,Conditions,WindDirDegrees,DateUTC
12:56 AM,46.9,30.0,52,30.02,10.0,West,4.6,-,N/A,,Clear,260,2012-11-21 08:56:00
1:56 AM,46.0,30.0,54,30.02,10.0,Calm,Calm,-,N/A,,Clear,0,2012-11-21 09:56:00
2:56 AM,41.0,28.9,62,30.02,10.0,Calm,Calm,-,N/A,,Clear,0,2012-11-21 10:56:00
3:56 AM,41.0,28.9,62,30.03,10.0,WSW,3.5,-,N/A,,Clear,240,2012-11-21 11:56:00
4:56 AM,37.9,28.0,68,30.04,10.0,SSW,4.6,-,N/A,,Clear,210,2012-11-21 12:56:00
5:56 AM,41.0,28.9,62,30.04,10.0,Calm,Calm,-,N/A,,Clear,0,2012-11-21 13:56:00
6:56 AM,39.0,28.0,65,30.06,10.0,Calm,Calm,-,N/A,,Partly Cloudy,0,2012-11-21 14:56:00
7:56 AM,48.0,30.9,52,30.06,10.0,NNW,3.5,-,N/A,,Scattered Clouds,330,2012-11-21 15:56:00
8:56 AM,50.0,30.9,48,30.07,10.0,WNW,3.5,-,N/A,,Scattered Clouds,300,2012-11-21 16:56:00
9:56 AM,55.9,32.0,40,30.06,10.0,Calm,Calm,-,N/A,,Scattered Clouds,0,2012-11-21 17:56:00
10:56 AM,61.0,32.0,34,30.03,10.0,Calm,Calm,-,N/A,,Scattered Clouds,0,2012-11-21 18:56:00
11:56 AM,64.0,30.9,29,30.01,10.0,NNW,4.6,-,N/A,,Scattered Clouds,340,2012-11-21 19:56:00
12:56 PM,66.9,30.9,26,29.99,10.0,Calm,Calm,-,N/A,,Mostly Cloudy,0,2012-11-21 20:56:00
1:56 PM,70.0,30.9,24,29.96,10.0,North,3.5,-,N/A,,Mostly Cloudy,350,2012-11-21 21:56:00
2:56 PM,70.0,32.0,25,29.95,10.0,Calm,Calm,-,N/A,,Mostly Cloudy,0,2012-11-21 22:56:00
3:56 PM,71.1,32.0,24,29.95,10.0,Calm,Calm,-,N/A,,Mostly Cloudy,0,2012-11-21 23:56:00
4:56 PM,64.0,30.0,28,29.97,10.0,East,4.6,-,N/A,,Mostly Cloudy,90,2012-11-22 00:56:00
5:56 PM,57.9,28.9,33,29.99,10.0,Calm,Calm,-,N/A,,Mostly Cloudy,0,2012-11-22 01:56:00
6:56 PM,57.9,33.1,39,30.01,10.0,Variable,4.6,-,N/A,,Mostly Cloudy,0,2012-11-22 02:56:00
7:56 PM,52.0,28.0,40,30.02,10.0,WSW,3.5,-,N/A,,Mostly Cloudy,250,2012-11-22 03:56:00
8:56 PM,48.0,27.0,44,30.05,10.0,SSW,4.6,-,N/A,,Clear,210,2012-11-22 04:56:00
9:56 PM,48.0,28.0,46,30.05,10.0,SW,5.8,-,N/A,,Clear,230,2012-11-22 05:56:00
10:56 PM,46.0,28.9,51,30.05,10.0,SW,5.8,-,N/A,,Clear,230,2012-11-22 06:56:00
11:56 PM,45.0,30.0,56,30.06,10.0,SW,6.9,-,N/A,,Clear,220,2012-11-22 07:56:00